�������l�o���
Date,Time,MP-1(��Sv/h),MP-2(��Sv/h),MP-3(��Sv/h),MP-4(��Sv/h),MP-5(��Sv/h),MP-6(��Sv/h),MP-7(��Sv/h),MP-8(��Sv/h),����,����(m/s),���J
2020/02/26,00:00,0.681,0.959,0.646,1.183,0.846,0.400,0.683,0.654,�k�k��,1.9,�L
2020/02/26,00:10,0.679,0.958,0.645,1.183,0.848,0.402,0.686,0.656,�k�k��,1.8,�L
2020/02/26,00:20,0.679,0.960,0.646,1.184,0.848,0.402,0.685,0.654,�k�k��,1.5,�L
2020/02/26,00:30,0.680,0.958,0.646,1.181,0.844,0.401,0.684,0.653,�k�k��,2.8,�L
2020/02/26,00:40,0.680,0.961,0.644,1.181,0.844,0.402,0.685,0.653,�k�k��,3.9,�L
2020/02/26,00:50,0.680,0.957,0.645,1.181,0.842,0.403,0.684,0.654,�k,3.7,�L
2020/02/26,01:00,0.679,0.958,0.644,1.181,0.844,0.404,0.686,0.655,�k,3.4,�L
2020/02/26,01:10,0.680,0.955,0.643,1.179,0.845,0.403,0.684,0.652,�k��,3.1,�L
2020/02/26,01:20,0.679,0.957,0.646,1.180,0.846,0.402,0.686,0.654,�k��,3.6,�L
2020/02/26,01:30,0.679,0.955,0.644,1.179,0.844,0.401,0.686,0.655,�k,3.3,�L
2020/02/26,01:40,0.677,0.955,0.644,1.178,0.844,0.401,0.685,0.653,�k�k��,3.8,�L
2020/02/26,01:50,0.678,0.956,0.644,1.179,0.843,0.402,0.684,0.652,�k�k��,3.8,�L
2020/02/26,02:00,0.677,0.957,0.643,1.178,0.844,0.400,0.686,0.652,�k�k��,4.4,�L
2020/02/26,02:10,0.677,0.955,0.642,1.177,0.842,0.400,0.686,0.653,�k�k��,4.3,�L
2020/02/26,02:20,0.677,0.955,0.642,1.179,0.841,0.400,0.686,0.652,�k�k��,5.2,�L
2020/02/26,02:30,0.676,0.955,0.641,1.177,0.841,0.399,0.686,0.653,�k�k��,5.9,�L
2020/02/26,02:40,0.675,0.956,0.640,1.177,0.838,0.398,0.684,0.652,�k�k��,5.3,�L
2020/02/26,02:50,0.676,0.954,0.641,1.179,0.840,0.397,0.683,0.651,�k�k��,4.8,�L
2020/02/26,03:00,0.674,0.957,0.640,1.178,0.840,0.394,0.685,0.652,�k�k��,5.0,�L
2020/02/26,03:10,0.674,0.956,0.637,1.177,0.837,0.396,0.684,0.652,�k�k��,5.3,�L
2020/02/26,03:20,0.676,0.956,0.639,1.178,0.839,0.395,0.685,0.652,�k�k��,4.9,�L
2020/02/26,03:30,0.673,0.955,0.638,1.177,0.840,0.395,0.687,0.651,�k�k��,4.2,�L
2020/02/26,03:40,0.674,0.955,0.639,1.177,0.839,0.395,0.684,0.652,�k�k��,5.4,�L
2020/02/26,03:50,0.674,0.955,0.640,1.177,0.839,0.395,0.686,0.652,�k�k��,5.1,�L
2020/02/26,04:00,0.672,0.953,0.639,1.177,0.839,0.394,0.687,0.651,�k�k��,5.3,�L
2020/02/26,04:10,0.674,0.954,0.638,1.176,0.837,0.395,0.685,0.651,�k�k��,5.5,�L
2020/02/26,04:20,0.674,0.954,0.638,1.179,0.838,0.395,0.685,0.653,�k�k��,6.5,�L
2020/02/26,04:30,0.672,0.953,0.638,1.177,0.835,0.395,0.686,0.652,�k�k��,6.6,�L
2020/02/26,04:40,0.673,0.952,0.635,1.178,0.837,0.395,0.686,0.653,�k�k��,4.8,�L
2020/02/26,04:50,0.672,0.953,0.636,1.176,0.837,0.394,0.684,0.652,�k�k��,5.7,�L
2020/02/26,05:00,0.671,0.952,0.638,1.176,0.837,0.393,0.686,0.651,�k�k��,5.9,�L
2020/02/26,05:10,0.673,0.952,0.636,1.178,0.840,0.394,0.686,0.652,�k�k��,5.8,�L
2020/02/26,05:20,0.672,0.952,0.636,1.175,0.839,0.395,0.684,0.651,�k�k��,6.1,�L
2020/02/26,05:30,0.671,0.953,0.637,1.178,0.839,0.395,0.686,0.651,�k�k��,6.4,�L
2020/02/26,05:40,0.672,0.956,0.639,1.178,0.838,0.395,0.685,0.651,�k�k��,6.9,�L
2020/02/26,05:50,0.674,0.955,0.636,1.178,0.838,0.396,0.685,0.651,�k�k��,7.1,�L
2020/02/26,06:00,0.673,0.953,0.637,1.178,0.839,0.393,0.685,0.652,�k�k��,6.2,�L
2020/02/26,06:10,0.673,0.953,0.637,1.177,0.837,0.394,0.685,0.650,�k�k��,6.9,�L
2020/02/26,06:20,0.672,0.952,0.636,1.178,0.838,0.395,0.686,0.651,�k�k��,5.6,�L
2020/02/26,06:30,0.673,0.953,0.637,1.175,0.838,0.394,0.685,0.652,�k�k��,7.5,�L
2020/02/26,06:40,0.673,0.953,0.636,1.177,0.838,0.394,0.685,0.651,�k�k��,6.5,�L
2020/02/26,06:50,0.672,0.952,0.636,1.176,0.839,0.395,0.685,0.652,�k�k��,7.3,�L
2020/02/26,07:00,0.673,0.953,0.638,1.175,0.838,0.394,0.685,0.651,�k�k��,6.1,�L
2020/02/26,07:10,0.673,0.954,0.635,1.177,0.838,0.394,0.685,0.652,�k�k��,7.2,�L
2020/02/26,07:20,0.672,0.953,0.637,1.176,0.836,0.393,0.684,0.652,�k�k��,7.4,�L
2020/02/26,07:30,0.671,0.952,0.636,1.177,0.837,0.393,0.686,0.652,�k�k��,7.5,�L
2020/02/26,07:40,0.671,0.954,0.636,1.175,0.838,0.395,0.686,0.653,�k��,6.0,�L
2020/02/26,07:50,0.671,0.954,0.634,1.176,0.838,0.393,0.686,0.651,�k�k��,6.6,�L
2020/02/26,08:00,0.671,0.954,0.635,1.177,0.837,0.393,0.686,0.650,�k�k��,6.6,�L
2020/02/26,08:10,0.671,0.953,0.636,1.176,0.839,0.392,0.685,0.653,�k�k��,6.3,�L
2020/02/26,08:20,0.671,0.954,0.636,1.179,0.840,0.393,0.685,0.650,�k�k��,6.3,��
2020/02/26,08:30,0.672,0.954,0.634,1.179,0.838,0.393,0.685,0.651,�k�k��,7.0,��
2020/02/26,08:40,0.676,0.952,0.635,1.177,0.840,0.393,0.685,0.651,�k��,5.8,��
2020/02/26,08:50,0.674,0.953,0.637,1.181,0.837,0.392,0.685,0.651,�k��,5.6,��
2020/02/26,09:00,0.672,0.953,0.636,1.180,0.837,0.392,0.687,0.652,�k�k��,5.9,��
2020/02/26,09:10,0.673,0.954,0.636,1.178,0.838,0.392,0.685,0.653,�k�k��,5.2,�L
2020/02/26,09:20,0.674,0.951,0.637,1.181,0.841,0.391,0.688,0.653,�k�k��,6.2,��
2020/02/26,09:30,0.673,0.953,0.636,1.178,0.839,0.392,0.688,0.653,�k�k��,5.7,��
2020/02/26,09:40,0.674,0.953,0.635,1.181,0.839,0.391,0.686,0.653,�k�k��,5.8,��
2020/02/26,09:50,0.674,0.953,0.635,1.179,0.840,0.392,0.687,0.652,�k�k��,5.4,��
2020/02/26,10:00,0.674,0.956,0.636,1.181,0.840,0.387,0.687,0.653,�k�k��,5.9,��
2020/02/26,10:10,0.674,0.955,0.637,1.180,0.842,0.385,0.690,0.654,�k�k��,4.9,��
2020/02/26,10:20,0.675,0.955,0.637,1.180,0.842,0.380,0.686,0.652,�k�k��,5.9,��
2020/02/26,10:30,0.677,0.955,0.639,1.181,0.841,0.392,0.688,0.653,�k�k��,5.2,��
2020/02/26,10:40,0.676,0.956,0.638,1.182,0.841,0.394,0.687,0.655,�k�k��,6.8,��
2020/02/26,10:50,0.676,0.957,0.637,1.182,0.842,0.393,0.687,0.655,�k�k��,6.2,��
2020/02/26,11:00,0.677,0.959,0.638,1.181,0.842,0.393,0.687,0.657,�k�k��,5.0,��
2020/02/26,11:10,0.676,0.957,0.636,1.182,0.844,0.394,0.687,0.653,�k�k��,5.4,��
2020/02/26,11:20,0.678,0.956,0.635,1.183,0.843,0.393,0.688,0.654,�k�k��,5.2,��
2020/02/26,11:30,0.676,0.957,0.636,1.184,0.844,0.392,0.687,0.654,�k�k��,5.8,��
2020/02/26,11:40,0.678,0.961,0.636,1.186,0.844,0.393,0.688,0.654,�k�k��,5.8,��
2020/02/26,11:50,0.679,0.960,0.638,1.186,0.844,0.394,0.686,0.655,�k�k��,6.3,��
2020/02/26,12:00,0.678,0.960,0.636,1.186,0.844,0.392,0.687,0.655,�k�k��,6.1,�L
2020/02/26,12:10,0.678,0.959,0.639,1.186,0.845,0.392,0.687,0.655,�k�k��,6.6,�L
2020/02/26,12:20,0.677,0.961,0.640,1.185,0.845,0.393,0.686,0.656,�k�k��,6.0,�L
2020/02/26,12:30,0.678,0.960,0.640,1.186,0.845,0.394,0.689,0.654,�k�k��,5.6,�L
2020/02/26,12:40,0.679,0.959,0.638,1.188,0.847,0.394,0.687,0.655,�k�k��,6.0,�L
2020/02/26,12:50,0.679,0.962,0.640,1.187,0.846,0.394,0.688,0.656,�k�k��,6.2,��
2020/02/26,13:00,0.679,0.963,0.641,1.189,0.847,0.393,0.686,0.657,�k�k��,6.6,��
2020/02/26,13:10,0.679,0.962,0.639,1.190,0.846,0.394,0.689,0.655,�k�k��,5.4,�L
2020/02/26,13:20,0.679,0.962,0.639,1.189,0.848,0.394,0.688,0.655,�k�k��,6.9,�L
2020/02/26,13:30,0.680,0.961,0.639,1.189,0.845,0.393,0.688,0.656,�k�k��,7.2,��
2020/02/26,13:40,0.679,0.960,0.640,1.191,0.847,0.394,0.688,0.655,�k�k��,8.2,��
2020/02/26,13:50,0.677,0.956,0.640,1.190,0.847,0.393,0.688,0.656,�k�k��,6.4,�L
2020/02/26,14:00,0.679,0.959,0.641,1.188,0.849,0.393,0.688,0.656,�k�k��,7.6,�L
2020/02/26,14:10,0.678,0.963,0.641,1.191,0.846,0.394,0.689,0.655,�k�k��,7.7,�L
2020/02/26,14:20,0.678,0.963,0.641,1.191,0.846,0.394,0.687,0.654,�k�k��,8.3,�L
2020/02/26,14:30,0.678,0.962,0.640,1.187,0.848,0.394,0.687,0.654,�k�k��,6.6,�L
2020/02/26,14:40,0.680,0.962,0.643,1.190,0.849,0.395,0.688,0.655,�k�k��,6.5,�L
2020/02/26,14:50,0.678,0.962,0.641,1.190,0.844,0.394,0.688,0.655,�k�k��,7.6,�L
2020/02/26,15:00,0.680,0.962,0.642,1.192,0.847,0.397,0.689,0.654,�k�k��,6.7,�L
2020/02/26,15:10,0.681,0.964,0.642,1.190,0.849,0.399,0.689,0.658,�k�k��,6.4,�L
2020/02/26,15:20,0.678,0.963,0.641,1.193,0.848,0.398,0.687,0.654,�k�k��,7.6,�L
2020/02/26,15:30,0.679,0.966,0.642,1.191,0.849,0.394,0.688,0.655,�k�k��,7.2,�L
2020/02/26,15:40,0.681,0.965,0.642,1.193,0.849,0.393,0.687,0.657,�k�k��,6.3,�L
2020/02/26,15:50,0.680,0.968,0.643,1.193,0.850,0.394,0.689,0.654,�k�k��,6.1,�L
2020/02/26,16:00,0.679,0.966,0.641,1.192,0.849,0.394,0.689,0.656,�k�k��,5.4,�L
2020/02/26,16:10,0.682,0.967,0.643,1.192,0.850,0.392,0.688,0.657,�k�k��,6.9,��
2020/02/26,16:20,0.680,0.968,0.641,1.190,0.850,0.394,0.686,0.656,�k�k��,7.2,�L
2020/02/26,16:30,0.678,0.967,0.644,1.192,0.849,0.394,0.688,0.656,�k�k��,5.8,�L
2020/02/26,16:40,0.680,0.970,0.643,1.192,0.848,0.393,0.690,0.656,�k�k��,7.1,�L
2020/02/26,16:50,0.680,0.968,0.644,1.191,0.848,0.394,0.688,0.657,�k�k��,7.6,�L
2020/02/26,17:00,0.680,0.968,0.642,1.194,0.850,0.394,0.688,0.656,�k�k��,8.4,�L
2020/02/26,17:10,0.680,0.969,0.642,1.194,0.850,0.394,0.688,0.656,�k,7.4,�L
2020/02/26,17:20,0.680,0.968,0.643,1.193,0.849,0.394,0.688,0.656,�k�k��,7.2,�L
2020/02/26,17:30,0.679,0.970,0.642,1.192,0.849,0.394,0.691,0.655,�k�k��,8.1,��
2020/02/26,17:40,0.682,0.970,0.645,1.192,0.849,0.394,0.689,0.658,�k�k��,7.2,��
2020/02/26,17:50,0.681,0.969,0.643,1.193,0.851,0.395,0.688,0.656,�k�k��,7.1,��
2020/02/26,18:00,0.680,0.968,0.643,1.193,0.849,0.392,0.690,0.657,�k�k��,6.5,��
2020/02/26,18:10,0.681,0.970,0.642,1.193,0.850,0.392,0.689,0.656,�k�k��,6.1,��
2020/02/26,18:20,0.679,0.970,0.641,1.194,0.849,0.393,0.692,0.657,�k�k��,6.2,��
2020/02/26,18:30,0.679,0.969,0.643,1.194,0.849,0.393,0.691,0.656,�k�k��,7.9,��
2020/02/26,18:40,0.678,0.969,0.642,1.192,0.850,0.394,0.692,0.657,�k�k��,6.9,��
2020/02/26,18:50,0.680,0.969,0.643,1.193,0.850,0.394,0.690,0.658,�k�k��,7.0,��
2020/02/26,19:00,0.680,0.969,0.642,1.193,0.851,0.395,0.691,0.655,�k�k��,7.4,��
2020/02/26,19:10,0.680,0.969,0.644,1.193,0.851,0.395,0.689,0.656,�k�k��,6.0,��
2020/02/26,19:20,0.681,0.969,0.642,1.193,0.852,0.394,0.691,0.656,�k�k��,6.3,��
2020/02/26,19:30,0.679,0.970,0.642,1.194,0.850,0.393,0.690,0.656,�k�k��,5.3,��
2020/02/26,19:40,0.680,0.969,0.642,1.193,0.848,0.394,0.692,0.658,�k�k��,5.1,��
2020/02/26,19:50,0.680,0.969,0.644,1.197,0.849,0.392,0.691,0.656,�k��,3.8,��
2020/02/26,20:00,0.680,0.971,0.643,1.193,0.850,0.394,0.690,0.657,�k��,5.1,��
2020/02/26,20:10,0.681,0.970,0.643,1.195,0.850,0.394,0.689,0.657,�k�k��,5.1,��
2020/02/26,20:20,0.681,0.968,0.642,1.192,0.851,0.394,0.689,0.657,�k�k��,4.7,��
2020/02/26,20:30,0.678,0.967,0.642,1.196,0.850,0.395,0.689,0.656,�k�k��,5.6,��
2020/02/26,20:40,0.679,0.969,0.645,1.194,0.850,0.394,0.689,0.656,�k�k��,5.2,��
2020/02/26,20:50,0.679,0.968,0.644,1.196,0.851,0.394,0.690,0.657,�k�k��,5.7,��
2020/02/26,21:00,0.678,0.970,0.643,1.194,0.851,0.394,0.690,0.656,�k��,4.9,��
2020/02/26,21:10,0.678,0.970,0.643,1.192,0.850,0.393,0.688,0.656,�k��,5.4,��
2020/02/26,21:20,0.679,0.969,0.642,1.196,0.850,0.394,0.691,0.656,�k��,5.4,��
2020/02/26,21:30,0.679,0.970,0.642,1.193,0.850,0.395,0.690,0.656,�k��,5.1,��
2020/02/26,21:40,0.679,0.970,0.643,1.193,0.850,0.393,0.689,0.656,�k��,4.5,��
2020/02/26,21:50,0.678,0.968,0.643,1.194,0.849,0.394,0.691,0.657,�k��,4.5,��
2020/02/26,22:00,0.680,0.968,0.643,1.195,0.848,0.394,0.691,0.657,�k��,5.4,��
2020/02/26,22:10,0.678,0.970,0.643,1.195,0.850,0.394,0.690,0.655,�k��,5.1,��
2020/02/26,22:20,0.677,0.970,0.642,1.194,0.851,0.392,0.687,0.654,�k��,5.7,��
2020/02/26,22:30,0.679,0.971,0.643,1.194,0.849,0.394,0.689,0.656,�k��,5.7,��
2020/02/26,22:40,0.679,0.971,0.642,1.192,0.849,0.394,0.689,0.656,�k��,5.5,��
2020/02/26,22:50,0.679,0.972,0.642,1.198,0.850,0.393,0.690,0.656,�k��,5.2,��
2020/02/26,23:00,0.679,0.969,0.643,1.195,0.851,0.393,0.690,0.656,�k��,6.1,��
2020/02/26,23:10,0.679,0.967,0.643,1.196,0.852,0.394,0.691,0.655,�k��,5.5,��
2020/02/26,23:20,0.679,0.969,0.642,1.195,0.850,0.396,0.690,0.657,�k��,5.7,��
2020/02/26,23:30,0.680,0.967,0.643,1.196,0.849,0.395,0.690,0.657,�k��,5.6,��
2020/02/26,23:40,0.680,0.969,0.642,1.195,0.849,0.394,0.689,0.657,�k��,5.7,��
2020/02/26,23:50,0.679,0.972,0.642,1.197,0.851,0.395,0.691,0.656,�k�k��,5.7,��
